Weather in Ocho Rios

Jamaica     18°23′53″N   77°06′08″W
temp.,
°C
wind,
m/s
gust,
m/s
humid.,
%
clouds,
%
prec.,
mm/h
press.,
hPa
HPBL,
m
26 february, fri
fri2601:00+26e88760 0.1 1017977
04:00+26e787717 0.3 1015974
07:00+26e897835 1.1 1016923
10:00+26e78719 0.1 1017861
13:00+26e79714 0.1 1016818
16:00+26e1011730 0.0 1014909
19:00+26e911750 0.0 1016902
22:00+26e810740 0.0 1017932
27 february, sat
sat2701:00+26e810750 0.1 10171103
04:00+26e89760 0.4 10161083
07:00+26ese68763 1.1 1017975
10:00+26e78720 0.1 1018899
13:00+26ene78740 0.1 1017735
16:00+26ene78730 0.0 1015793
19:00+26e67760 0.0 1016715
22:00+26e810780 0.0 1018894
28 february, sun
sun2801:00+26e79771 0.1 1017979
04:00+26e677544 0.1 1016885
07:00+26e577427 0.1 1017795
10:00+26e89763 0.3 1018959
13:00+26e910762 0.4 1016981
16:00+26e910780 0.0 1015745
19:00+26e911740 0.0 10161084
22:00+26ene88780 0.1 1017933
1 march, mon
mon101:00+26e810750 0.1 10161191
04:00+26e910770 0.1 10141061
07:00+26e67760 0.2 1016877
10:00+26e68750 0.0 1017781
13:00+26e89710 0.0 1016805
16:00+26e77730 0.0 1014845
19:00+26ese67700 0.0 1015647
22:00+26e56720 0.0 1016742
2 march, tue
tue201:00+25e45740 0.0 1015873
04:00+25e678024 0.4 1014823
07:00+25e898024 0.7 1016837
10:00+26ene910818 0.3 1017842
13:00+25ene55816 0.3 1015450
16:00+26e66750 0.0 1014684
19:00+26se45760 0.0 1015480
22:00+26e34740 0.0 1017832